Regional Weather Roundup
Issued by NWS Albany, NY

Home | Current Version | Previous Version | Text Only | Print | Product List | Glossary On
Versions: 1 2 3 4 5 6 7 8 9 10 11 12 13 14 15 16 17 18 19 20 21 22 23 24 25 26 27
000
ASUS41 KALY 171710
RWRALY

NEW YORK STATE HOURLY WEATHER ROUNDUP
NATIONAL WEATHER SERVICE ALBANY NY
100 PM EDT THU APR 17 2014

NOTE: "FAIR" INDICATES FEW OR NO CLOUDS BELOW 12,000 FEET WITH NO
SIGNIFICANT WEATHER AND/OR NO OBSTRUCTIONS TO VISIBILITY.

NYZ032-033-038>043-046>054-057>066-NYZ062>081-171800-
EAST


CITY           SKY/WX    TMP DP  RH WIND       PRES   REMARKS
ALBANY         PTSUNNY   45  17  32 VRB6      30.71F
GLENS FALLS    PTSUNNY   40  19  43 VRB3      30.72F
POUGHKEEPSIE   SUNNY     48  21  34 E8        30.69F
NEWBURGH       SUNNY     46  21  36 SE7       30.70F
MONTGOMERY     SUNNY     46  19  34 VRB3      30.68F
WHITE PLAINS   SUNNY     43  24  47 SE9       30.70F
ISLIP          PTSUNNY   46  23  40 E8        30.70F
NEW YORK CITY  PTSUNNY   44  25  47 NE14      30.72F
CENTRAL PARK   MOSUNNY   47  25  42 NE7       30.73F
$$

NYZ005>009-017-018-044>046-055-056-171800-
CENTRAL


CITY           SKY/WX    TMP DP  RH WIND       PRES   REMARKS
FULTON         MOSUNNY   46  22  38 SE9G16    30.58F
SYRACUSE       PTSUNNY   49  19  30 SE10      30.59F
ROME           MOSUNNY   43  24  47 SE10G22   30.65F
ELMIRA         MOSUNNY   49  18  29 S9G21     30.55F
BINGHAMTON     MOSUNNY   44  20  38 SE12G21   30.56F
MONTICELLO     SUNNY     43  21  42 SE8       30.64F
$$

NYZ026>034-041>043-171800-
NORTH


CITY           SKY/WX    TMP DP  RH WIND       PRES   REMARKS
WATERTOWN      MOSUNNY   48  18  30 SE7       30.61F
FORT DRUM      NOT AVBL
MASSENA        MOSUNNY   45  20  36 NE14      30.67F
SARANAC LAKE   MOSUNNY   40  15  36 MISG      30.59F
PLATTSBURGH    MOSUNNY   40  19  43 SE15      30.73F WCI  32
$$

NYZ001>004-010>016-019>021-171800-
WEST


CITY           SKY/WX    TMP DP  RH WIND       PRES   REMARKS
NIAGARA FALLS  PTSUNNY   50  22  33 S6        30.46F
BUFFALO        PTSUNNY   51  22  31 VRB3      30.46F
DUNKIRK        MOSUNNY   53  24  32 SE10G21   30.45F
JAMESTOWN      SUNNY     46  23  39 SE17      30.43F
WELLSVILLE     MOSUNNY   46  18  32 SE15G24   30.48F
ROCHESTER      PTSUNNY   49  21  33 S12G22    30.53F
PENN YAN       MOSUNNY   48  22  35 S12       30.54F
$$

             KEY
       WCI = WIND CHILL INDEX
       VSB = VISIBILITY
       HX  = HEAT INDEX
$$



USA.gov is the U.S. government's official web portal to all federal, state and local government web resources and services.